Wind_Speed
91 94 95 96 97 98 98 98 99 99 99 100 100 100 100 100 100 100 100 100 100 101 101 101 100 99 97 95 93 92 91 91 92 93 94 95 94 93 92 91 91 91 91 90 90 90 91 90 90 89 89 89 88 86 84 83 82 82 82 82 81 79 78 78 76 73 72 72 70 69 69 68 68 69 71 72 71 71 71 71 71 72 72 72 72
80 84 88 91 94 96 98 100 101 102 103 103 104 104 104 104 104 104 104 105 105 105 106 106 105 104 102 100 97 95 93 92 92 92 92 93 94 95 95 94 93 92 92 92 92 92 92 92 91 90 91 91 90 89 87 85 84 83 82 82 82 80 80 80 79 77 77 76 74 72 72 71 69 69 71 73 73 73 73 73 74 75 75 75 75
69 72 76 79 83 86 89 92 95 98 100 102 103 105 106 107 107 107 108 108 108 109 109 109 108 105 104 102 101 99 96 94 93 92 92 92 92 93 94 96 96 95 94 93 92 92 92 93 92 91 91 92 91 90 89 88 87 84 83 82 82 81 81 82 82 81 80 79 78 77 75 74 71 70 70 72 75 75 75 75 76 77 77 77 76
60 62 65 68 72 75 77 80 82 85 88 92 95 97 100 102 104 106 107 108 109 110 110 109 108 106 104 103 102 101 100 97 95 93 92 92 92 92 92 93 95 96 95 95 94 93 93 93 93 92 92 93 93 91 90 89 89 87 85 83 82 81 81 82 83 82 82 82 81 80 79 78 76 73 71 72 75 78 78 77 78 78 78 78 78
56 56 58 60 63 66 69 71 73 75 77 79 82 85 88 91 94 96 99 101 103 104 105 106 106 106 106 104 102 101 101 100 98 95 93 92 92 92 92 92 92 93 94 95 95 95 95 94 93 93 93 93 93 92 91 90 89 88 87 85 83 82 82 82 82 82 83 83 83 82 82 82 81 79 75 74 76 79 80 80 79 79 79 79 79
54 54 55 56 57 60 63 65 66 67 69 70 71 74 77 81 84 87 90 92 93 95 97 99 101 102 104 105 104 103 101 101 100 98 96 93 92 91 92 92 91 92 92 92 93 94 95 95 94 94 94 94 93 92 91 90 89 89 88 86 85 83 83 82 82 82 82 82 82 83 83 83 83 82 80 79 78 80 81 81 80 80 79 78 79
53 53 53 54 55 57 59 61 62 63 63 63 65 68 71 74 77 80 83 85 87 89 90 92 94 96 98 101 103 104 103 102 101 100 99 97 94 92 91 91 91 91 91 91 91 92 93 94 95 95 95 95 94 93 92 91 90 89 88 87 86 85 84 83 83 82 82 82 82 82 82 83 83 82 82 83 83 81 81 80 80 79 78 77 78
52 52 52 53 54 55 57 58 59 59 60 60 62 64 66 69 71 74 77 79 81 84 86 88 90 92 94 96 98 100 102 102 102 102 101 100 98 95 92 92 91 91 91 90 90 90 91 91 92 93 94 95 95 94 93 93 92 91 90 88 87 86 85 84 84 83 82 81 81 82 82 82 83 82 82 84 84 83 81 80 78 76 75 76 78
53 52 51 52 53 54 54 55 56 57 57 58 59 61 62 64 65 67 69 71 74 77 80 83 86 88 91 93 95 96 98 99 101 102 102 102 101 99 96 94 92 91 90 90 89 89 89 89 90 90 91 92 93 93 94 94 93 93 91 90 89 87 86 85 85 84 83 82 82 82 82 82 82 82 83 83 82 82 81 81 79 76 75 77 78
53 52 51 52 53 53 53 53 54 54 55 56 57 58 59 60 60 61 62 64 67 70 73 76 79 83 86 89 92 94 95 96 98 100 101 102 102 101 100 98 95 92 91 89 88 88 88 88 88 88 89 89 90 91 92 93 93 93 92 92 90 89 88 87 86 85 84 83 83 82 82 82 81 81 81 81 81 81 81 82 81 79 78 78 79
53 52 51 52 53 53 52 52 52 52 54 55 56 57 57 57 57 58 59 60 62 64 66 69 72 76 79 83 87 90 92 93 95 96 98 100 101 101 101 101 100 96 92 90 88 87 87 87 87 87 87 87 88 88 89 90 91 92 92 92 91 90 89 88 88 87 86 85 84 83 82 81 80 80 80 80 80 80 81 81 81 79 78 79 79
52 51 51 52 53 53 52 51 51 51 53 54 56 57 57 57 57 57 57 58 59 60 62 64 66 69 72 76 80 84 87 90 92 94 95 96 99 100 100 101 102 99 95 92 89 86 85 85 85 85 85 85 86 86 86 87 88 89 90 91 91 90 90 89 89 88 88 87 86 85 84 82 81 81 80 79 79 80 80 80 80 79 79 80 80
51 50 50 51 52 52 51 50 50 51 52 54 55 56 57 57 57 57 57 57 58 58 59 61 63 65 67 70 74 78 81 85 88 91 92 93 95 97 99 99 100 100 98 95 92 88 86 84 84 84 84 84 84 85 85 85 85 86 87 89 89 90 89 88 88 88 88 88 87 86 85 84 83 82 81 81 81 81 81 81 80 80 80 81 80
50 50 49 50 51 51 50 49 49 50 51 53 54 55 56 56 57 57 57 56 57 57 58 59 60 61 63 66 68 71 74 79 83 87 89 90 91 94 96 98 99 98 97 96 95 91 88 85 83 83 83 83 83 83 83 84 84 85 85 86 87 87 87 87 87 87 87 87 86 85 84 83 82 82 82 82 83 83 83 82 82 82 82 82 82
50 50 50 50 50 49 48 47 48 49 50 52 53 54 54 55 56 56 56 55 55 55 56 57 58 58 60 62 64 66 68 72 77 81 84 86 88 91 93 96 97 96 95 95 95 94 91 87 84 82 81 81 81 82 82 83 83 84 84 84 84 85 85 85 85 85 85 84 84 83 83 82 82 82 82 82 83 83 83 83 83 83 84 84 84
50 50 49 50 50 49 48 47 47 48 49 50 51 52 53 53 54 55 55 54 53 53 54 55 55 56 56 58 60 62 63 66 69 73 78 81 84 87 90 93 94 93 92 93 94 94 93 90 86 83 81 80 80 80 81 82 82 83 84 84 84 84 83 83 83 84 84 83 83 83 82 82 83 83 83 83 83 83 83 83 83 84 84 84 84
49 49 49 49 49 48 47 47 47 47 48 49 49 50 51 52 52 53 53 52 52 52 52 53 54 54 54 55 57 58 59 61 63 66 70 74 78 82 86 89 90 90 90 91 92 92 92 91 88 85 82 80 79 79 79 80 81 82 83 84 84 84 83 83 82 82 82 82 82 82 83 83 83 83 83 83 82 82 83 82 83 83 83 83 83
48 48 48 48 49 47 46 46 46 47 47 48 48 49 50 50 50 51 50 50 49 49 50 51 51 52 53 53 54 56 56 57 59 61 62 66 70 75 80 84 86 87 87 89 91 91 91 90 89 86 83 81 80 79 78 79 79 80 81 83 84 84 84 83 82 82 82 81 81 81 82 82 82 82 82 82 82 82 81 81 82 82 83 83 84
47 46 47 48 48 47 45 45 45 46 46 47 47 48 49 49 48 48 47 47 47 47 47 48 48 49 50 51 51 53 52 53 55 57 57 59 62 66 73 77 80 82 84 87 89 89 89 89 88 86 84 82 80 79 78 77 78 79 80 81 82 83 83 83 83 83 82 82 82 81 81 81 81 81 81 81 82 82 82 82 83 83 84 85 86
44 44 45 46 46 45 44 44 44 45 45 46 46 47 47 47 46 45 44 44 44 44 44 45 44 44 45 46 47 47 48 48 49 51 52 52 55 59 65 70 73 76 80 84 86 87 88 87 86 85 84 82 81 79 78 77 77 78 79 80 81 81 82 83 83 83 83 83 83 82 82 82 82 82 82 82 83 83 83 84 84 85 85 86 87
43 43 44 45 45 44 43 42 43 44 44 45 45 45 45 44 43 42 41 41 41 41 41 40 40 39 39 40 41 42 42 42 43 44 46 47 49 54 59 63 66 69 75 79 83 85 86 85 84 84 83 82 81 80 79 78 77 77 78 79 80 81 82 82 82 83 83 83 83 83 83 83 83 83 83 84 84 84 84 85 85 86 86 87 87
42 42 42 44 44 43 42 41 42 42 43 43 43 43 42 42 41 40 39 39 38 38 37 36 34 33 34 35 36 36 37 37 37 39 41 43 45 49 53 57 59 63 69 75 79 82 84 83 82 82 81 81 80 79 78 77 77 77 77 78 79 80 81 81 82 82 82 82 82 82 82 82 83 83 84 84 85 85 85 85 86 86 86 87 87
41 41 42 43 43 43 42 41 41 42 42 42 41 41 40 40 39 38 37 37 36 35 33 32 30 29 30 31 31 31 31 32 32 34 36 38 40 43 48 51 54 58 63 69 74 78 81 81 80 80 80 79 79 78 77 76 75 75 76 76 77 78 79 80 81 81 81 82 81 81 81 82 82 82 83 83 83 84 84 84 84 85 85 86 86
41 42 43 43 43 43 42 41 40 40 40 40 40 39 38 37 36 35 34 34 33 32 31 29 28 27 26 26 26 26 25 26 27 28 30 32 35 38 42 45 48 51 56 63 68 73 76 78 78 78 78 77 77 76 74 73 73 73 74 74 75 75 76 77 78 79 80 81 81 81 82 82 82 82 83 83 83 83 84 84 85 85 86 86 87
42 43 43 44 43 42 42 41 40 39 39 38 38 37 36 34 34 33 32 31 30 29 28 27 26 24 23 22 22 21 21 21 23 24 26 28 31 34 36 38 40 43 48 55 61 67 72 75 76 76 75 74 74 73 72 72 72 72 72 72 72 72 72 73 74 74 75 76 77 77 78 78 79 80 81 81 81 82 82 83 84 84 84 85 85
42 43 44 44 43 42 41 40 39 38 37 37 36 35 33 32 31 31 30 29 27 26 25 25 23 22 21 20 19 19 18 19 21 22 23 26 28 30 31 32 33 36 41 47 54 61 66 69 71 72 72 72 72 71 70 70 70 69 68 68 68 68 68 69 69 69 69 70 71 71 72 72 73 74 74 75 75 76 76 77 77 78 78 79 79
43 44 44 44 43 42 41 39 38 37 36 35 35 34 32 29 29 28 28 27 25 24 23 22 21 19 18 18 17 17 17 18 19 20 22 24 26 27 28 29 31 33 37 42 48 54 60 63 67 69 69 69 69 69 68 68 67 66 65 65 65 65 65 65 65 65 65 65 66 66 66 67 67 68 69 70 70 71 72 72 73 74 75 75 76
44 44 44 44 43 42 40 38 37 36 35 34 33 32 30 28 27 26 26 24 24 23 22 20 19 18 17 16 16 15 16 17 18 19 20 22 24 26 28 29 30 32 35 38 43 49 54 58 61 64 65 65 65 65 65 65 64 63 63 62 62 62 62 62 62 62 63 63 63 63 64 64 65 66 66 67 68 69 69 70 71 72 72 73 74
44 44 44 43 42 41 39 38 36 35 34 32 31 31 29 27 25 25 24 23 22 22 21 19 18 17 16 15 15 15 16 16 17 17 19 21 23 25 27 29 31 33 34 36 40 45 49 52 55 57 59 60 60 61 61 61 61 61 61 61 60 60 60 60 61 61 61 61 62 62 63 63 64 64 65 65 66 67 68 68 69 70 70 71 71
43 43 42 41 40 39 38 37 35 34 33 31 30 30 29 27 24 23 24 23 21 21 20 18 16 16 15 15 14 15 15 16 16 17 19 21 23 24 27 29 31 33 34 35 38 41 45 48 50 51 52 54 55 56 56 57 57 58 58 59 59 59 59 59 59 59 60 60 60 61 61 61 62 62 63 64 64 65 65 66 66 67 67 67 68
41 40 39 39 38 37 36 36 34 33 32 31 29 28 28 27 24 21 22 22 21 20 19 18 16 15 15 14 14 14 15 15 16 17 18 20 22 24 26 28 29 31 33 35 37 39 41 43 45 47 48 49 50 51 52 52 53 54 55 56 56 56 57 57 57 57 58 58 58 58 59 59 59 60 60 60 61 61 62 62 63 63 63 63 63
40 39 38 37 36 36 35 35 34 32 31 30 29 27 26 26 25 22 20 20 21 19 18 17 16 15 14 13 13 13 14 15 16 16 18 20 21 23 25 26 28 30 32 35 37 38 40 42 43 45 46 46 47 48 49 50 51 51 52 53 53 54 55 55 55 56 56 56 56 56 56 56 56 56 56 56 57 57 57 58 58 58 58 59 59
40 39 37 36 35 35 35 34 33 32 30 29 29 28 26 25 25 23 20 19 19 18 17 16 16 14 13 12 12 13 14 15 15 16 17 19 21 22 23 25 26 28 30 33 35 37 39 40 42 43 44 44 45 46 47 48 49 49 50 50 50 51 51 52 52 53 53 53 53 53 53 53 53 53 53 53 54 54 55 55 55 56 56 57 57
40 39 37 36 35 34 34 33 32 31 30 29 28 27 26 24 24 23 21 19 18 17 16 16 15 14 13 12 12 13 14 14 15 15 17 19 20 22 23 24 25 27 28 30 32 34 36 37 39 40 41 41 42 43 44 44 45 45 45 46 46 46 47 47 48 48 48 49 49 49 49 49 50 50 50 51 52 53 53 54 55 55 55 56 56
40 39 37 36 35 34 34 33 32 31 30 29 28 27 26 24 23 22 21 19 18 17 16 15 15 14 13 12 12 13 14 14 15 16 18 19 20 21 22 23 24 25 27 28 30 31 33 34 35 36 37 38 39 39 40 40 40 41 41 41 42 42 42 43 43 43 44 44 45 45 46 47 47 48 48 49 49 50 51 51 52 52 53 53 54
41 39 37 36 35 34 34 33 32 30 29 28 27 27 26 25 23 22 21 19 18 17 16 15 15 14 14 13 12 13 14 14 15 17 18 19 20 21 22 23 24 25 26 27 28 29 30 31 32 33 34 35 35 36 36 37 37 38 38 38 38 39 39 39 40 40 41 41 42 43 43 44 44 45 45 46 46 47 48 48 49 50 50 51 52
41 40 38 37 35 34 34 33 32 31 29 28 27 26 25 25 24 23 21 20 18 17 16 16 15 15 14 14 13 14 14 15 16 17 19 19 19 20 22 23 24 25 26 26 27 28 29 30 31 31 32 33 33 34 34 35 35 35 35 36 36 36 36 37 37 38 38 39 39 40 40 41 41 42 43 44 45 46 47 47 48 49 50 50 51
42 40 39 37 35 34 33 33 32 31 29 28 27 26 25 25 24 23 22 21 19 18 17 17 16 15 15 15 15 15 15 16 16 18 19 19 19 21 22 23 23 24 25 26 27 28 28 29 29 30 31 31 32 32 33 33 33 33 33 33 34 34 34 34 34 35 35 36 37 37 38 39 40 41 42 43 44 45 46 47 48 49 49 50 51
43 41 39 37 35 34 33 32 32 31 30 28 27 26 25 24 24 24 23 22 21 19 18 17 17 16 16 16 15 16 16 17 17 18 19 19 20 21 22 22 23 24 25 25 26 27 27 28 28 29 29 30 31 31 31 32 32 32 32 32 32 32 32 32 32 33 33 34 35 36 37 38 39 40 42 43 44 45 46 47 47 48 49 50 51
43 41 39 37 35 33 32 31 31 31 30 28 27 26 25 24 24 24 24 24 23 21 20 19 18 17 17 17 17 17 17 17 18 18 19 19 20 21 22 22 23 24 25 25 26 26 27 27 28 28 29 29 29 30 30 30 30 30 31 31 31 31 31 31 32 32 33 34 35 36 37 38 39 40 42 43 44 45 45 46 47 48 48 49 49
42 40 38 36 34 33 31 30 30 30 30 29 27 26 26 25 24 24 25 25 24 23 22 21 20 19 19 18 18 18 18 18 19 19 19 20 20 21 22 22 23 24 24 25 25 26 26 27 27 28 28 28 29 29 29 29 30 30 30 30 30 31 31 32 33 33 34 35 36 37 38 39 40 41 42 43 43 44 45 45 46 47 47 48 48
37 36 35 34 33 31 30 30 29 29 29 29 28 27 26 26 25 25 25 25 26 25 25 24 22 21 21 20 20 20 20 20 20 21 21 21 21 21 22 22 23 23 24 24 25 25 26 26 27 27 28 28 28 29 29 29 30 30 30 31 31 32 33 34 34 36 36 37 38 39 39 40 41 41 42 43 43 44 44 45 45 46 46 46 46
32 31 31 31 31 30 29 29 28 28 28 28 28 27 26 26 26 26 25 26 26 27 27 26 25 24 23 23 22 22 22 22 22 22 22 23 23 23 23 23 24 24 24 24 25 25 26 26 27 27 27 28 29 29 30 30 31 31 32 33 33 34 35 36 37 38 39 40 40 41 41 42 42 42 42 43 43 43 43 44 44 44 44 44 45
29 28 27 27 28 28 28 27 27 27 27 27 28 28 27 26 26 26 26 27 27 28 28 29 28 27 27 26 25 25 24 24 24 24 24 24 24 24 25 25 25 26 26 26 26 27 27 27 28 28 28 29 29 30 31 32 33 34 35 36 36 37 38 39 40 40 41 41 42 42 42 43 43 43 43 43 43 43 43 43 43 43 43 43 43
28 27 26 26 27 27 28 27 27 27 27 27 27 28 28 28 27 27 27 27 28 28 29 30 30 30 30 29 29 28 27 26 26 26 26 26 26 26 26 26 27 27 27 27 28 28 29 29 30 30 30 31 31 32 33 34 35 36 37 38 39 39 40 40 41 42 42 43 43 43 44 44 44 44 44 44 44 44 43 43 42 42 42 41 41
29 27 26 25 25 26 27 27 27 27 27 28 28 28 29 29 29 28 28 28 29 29 30 30 32 32 32 32 32 31 30 30 29 29 28 28 28 28 28 28 28 28 28 28 29 29 30 30 31 31 32 33 33 34 35 36 37 38 38 39 39 40 40 41 42 42 43 43 44 44 45 45 45 46 46 46 45 45 44 43 42 41 40 40 39
30 29 27 26 26 25 25 25 25 26 26 27 28 29 29 30 30 30 29 29 29 30 31 31 32 33 34 34 34 34 34 33 32 32 31 31 30 30 30 29 29 29 29 30 30 30 31 31 32 32 33 34 34 35 36 37 37 38 38 39 39 40 41 41 42 43 43 44 45 45 46 46 46 46 46 45 44 44 43 42 40 39 38 38 37
31 30 29 28 28 27 26 26 26 25 25 25 25 26 28 29 30 31 31 31 31 31 32 32 33 33 35 36 37 37 36 36 35 35 34 34 33 32 32 31 31 31 31 31 31 32 32 33 33 34 34 35 35 36 36 37 37 37 38 39 39 40 40 41 42 43 43 44 44 43 43 42 42 41 41 40 40 40 39 38 37 36 36 35 34
33 32 32 31 30 30 29 28 28 27 26 26 25 24 25 26 27 29 31 32 32 32 33 33 33 34 35 36 37 38 38 38 37 37 37 36 36 35 34 34 34 34 33 33 33 33 34 34 34 35 35 35 35 36 36 36 37 37 38 38 39 39 40 41 42 41 41 40 39 38 37 37 36 36 36 35 35 34 34 33 33 33 32 32 31
35 35 34 34 33 33 32 32 31 30 30 29 28 27 26 25 25 26 27 29 32 33 34 34 35 35 35 36 37 38 39 40 40 39 39 38 38 38 37 37 36 36 35 35 34 35 35 35 35 35 35 35 35 35 36 36 36 37 37 37 38 39 40 39 38 36 35 35 35 34 34 34 33 33 32 31 30 30 30 30 29 29 28 28 27
38 38 38 37 37 37 36 36 35 34 33 32 31 30 29 28 27 26 26 26 28 31 33 35 36 36 36 36 37 38 39 40 41 41 41 40 40 40 39 39 38 38 37 36 36 36 36 36 35 35 35 35 35 35 35 36 36 37 37 38 38 37 36 34 33 32 32 33 33 33 32 31 30 29 28 27 27 27 26 26 25 25 25 25 25
Wind_Direction
270 269 268 268 267 266 265 265 264 263 262 261 261 260 260 260 260 260 260 260 260 260 260 260 260 259 258 256 254 252 251 250 249 249 248 247 246 246 245 245 246 246 246 246 246 246 247 247 248 248 248 248 248 247 247 247 247 248 249 250 250 250 250 250 249 247 246 245 244 243 242 243 245 247 247 247 247 248 248 248 248 249 249 249 250
274 273 272 271 270 269 268 267 266 266 265 264 264 263 261 261 261 261 262 261 261 261 262 262 262 260 259 258 256 255 253 252 250 249 248 247 246 246 245 245 245 245 245 245 245 246 246 246 247 247 248 248 248 248 247 247 246 246 247 248 249 250 250 251 250 248 247 247 246 245 244 243 243 245 247 247 247 247 247 248 249 249 249 249 250
279 277 275 274 272 271 270 269 268 267 266 266 265 265 265 264 263 263 263 262 262 262 261 261 260 259 258 258 257 256 255 254 252 251 249 248 247 246 245 245 245 244 244 244 244 244 245 245 246 246 247 248 248 248 248 247 247 246 246 247 248 249 249 250 251 250 249 248 248 247 248 246 244 243 244 246 247 247 246 247 248 249 249 250 250
284 282 280 278 276 274 273 272 271 270 269 268 268 268 268 267 266 265 264 263 262 262 261 259 258 257 257 256 256 256 255 254 253 252 251 249 248 247 246 245 244 244 244 244 244 244 244 244 245 245 246 247 247 248 248 248 248 247 247 247 247 247 248 249 250 251 250 250 249 249 249 249 247 244 242 243 246 248 248 247 248 249 249 250 250
288 287 285 283 280 277 275 273 273 272 271 271 270 270 269 269 268 267 266 264 263 262 261 259 258 257 255 255 254 254 254 254 253 252 251 250 249 248 246 245 244 244 243 243 243 243 244 244 244 244 245 246 246 247 247 248 248 248 248 247 247 247 247 248 249 250 250 251 251 251 250 251 250 249 246 244 244 247 249 249 249 249 249 250 250
290 289 289 287 285 280 276 274 273 272 273 273 273 272 272 271 270 269 268 266 265 263 261 260 259 257 255 254 253 252 252 252 252 252 251 250 249 248 247 246 245 244 243 242 242 242 243 243 243 244 244 245 245 246 246 247 247 248 248 248 248 247 247 248 248 249 249 250 251 251 251 252 252 252 251 248 246 246 248 250 250 250 250 250 251
291 291 290 290 288 283 278 274 273 273 273 274 275 275 274 274 273 271 269 268 266 264 262 261 259 258 256 254 253 252 251 250 251 251 251 250 249 248 248 246 245 244 243 243 242 242 242 242 242 243 243 244 245 245 246 246 247 247 248 248 248 248 248 248 248 248 248 249 250 251 251 252 252 252 253 252 251 249 249 250 250 250 251 252 252
294 292 291 291 290 286 280 276 274 273 274 275 277 277 277 276 275 273 272 270 268 265 263 261 259 258 256 255 253 252 250 249 249 249 249 249 249 248 247 246 245 244 243 243 242 242 241 241 241 242 242 243 243 244 245 245 246 246 247 247 247 247 247 248 248 248 248 248 249 249 250 251 251 252 252 253 254 253 253 252 250 249 250 252 253
296 294 293 292 291 288 283 278 275 274 276 278 279 280 280 279 278 276 274 272 270 268 265 263 260 258 256 255 254 252 250 249 248 247 247 248 248 248 247 246 245 245 244 243 242 242 242 241 241 241 241 242 242 243 243 244 244 245 246 246 246 246 246 247 247 248 248 248 248 248 249 249 250 251 252 253 254 255 255 254 253 251 251 252 253
297 296 295 294 293 290 285 280 277 277 279 281 283 284 284 283 281 279 277 275 273 271 268 266 263 260 257 255 253 252 251 249 247 246 246 246 246 246 246 246 245 244 244 243 242 242 241 241 241 241 241 241 241 241 242 243 243 244 244 245 245 245 245 246 246 247 248 248 248 248 248 249 250 251 252 253 254 254 254 255 255 254 254 253 253
298 297 297 296 295 293 289 284 281 281 283 285 286 286 287 286 284 282 279 276 274 273 271 268 266 263 260 257 254 252 251 249 248 246 245 244 244 244 244 245 244 243 243 243 242 242 241 241 240 240 241 241 241 241 241 241 242 242 243 243 243 244 244 245 245 246 247 248 248 248 248 249 249 250 251 251 252 253 253 254 254 254 254 254 254
299 298 298 297 296 295 292 287 285 285 286 287 288 289 289 289 287 284 281 278 276 274 272 270 268 266 263 260 257 254 251 250 248 246 244 243 243 242 242 243 243 242 242 242 242 241 241 241 240 240 240 240 240 240 240 241 241 241 241 242 242 242 243 243 244 245 246 246 247 248 249 249 249 250 250 251 251 251 252 252 253 253 253 253 253
300 299 298 298 298 297 293 289 288 288 289 290 290 291 291 291 289 287 284 281 278 276 273 271 270 268 265 263 260 257 254 251 249 247 244 243 242 241 240 240 241 241 241 240 240 241 241 241 240 239 239 239 239 239 240 240 240 241 241 241 241 241 242 242 243 243 244 245 246 246 248 248 249 249 249 250 250 250 251 252 252 252 252 252 253
301 300 300 300 300 298 295 291 289 290 291 291 292 292 293 292 291 290 287 284 281 278 276 273 271 269 267 265 263 260 257 254 252 248 245 243 241 240 239 239 238 238 239 239 239 239 239 240 240 239 239 238 238 238 238 239 239 240 240 241 240 241 241 241 242 243 244 245 245 246 246 247 248 248 248 248 249 250 250 251 252 252 252 252 252
303 302 302 302 302 299 295 291 290 291 292 293 294 294 294 294 293 291 289 286 283 280 278 276 274 271 269 267 265 262 259 257 254 251 248 245 242 240 239 238 237 236 236 237 237 237 237 238 238 239 238 238 237 237 237 237 238 238 239 240 240 240 240 241 242 242 243 244 245 245 246 246 247 247 247 248 249 249 250 250 250 251 251 251 251
304 304 304 304 303 301 297 294 293 294 295 296 296 296 296 295 294 292 290 288 285 282 280 278 276 273 270 268 266 263 261 259 256 254 251 248 244 241 238 237 236 235 234 234 235 235 235 236 236 237 237 237 237 236 236 236 236 237 237 238 238 239 240 240 241 241 242 243 243 244 244 245 245 246 247 248 248 249 249 249 250 250 250 251 251
305 305 305 305 305 302 299 297 297 298 299 299 299 298 298 297 296 294 291 289 287 285 282 280 278 274 271 268 266 263 261 259 258 256 253 250 247 243 240 237 235 234 232 232 233 233 233 233 234 235 236 236 236 235 236 235 235 236 236 237 237 237 238 239 240 240 241 242 242 243 243 244 245 245 246 247 247 248 248 249 249 249 250 250 250
306 306 306 307 306 304 301 299 300 300 301 301 301 300 300 300 298 296 293 291 290 287 285 282 279 275 271 268 265 263 261 259 258 256 254 252 248 245 242 238 235 232 231 230 230 230 231 231 232 232 233 234 234 234 234 235 235 235 235 236 236 236 237 237 238 239 240 240 241 242 243 243 244 245 245 246 246 247 247 247 248 248 249 249 250
306 307 308 309 308 305 302 301 302 303 303 303 303 303 303 302 301 298 297 295 293 291 288 285 280 276 272 269 266 264 262 259 258 256 255 253 249 246 243 239 234 231 229 228 228 228 229 229 230 230 230 231 232 233 233 233 234 234 234 235 235 236 236 237 237 238 239 239 240 241 242 242 243 243 244 244 245 245 246 246 247 247 248 249 250
307 308 310 311 311 308 304 303 304 304 304 305 305 306 305 304 303 302 300 298 296 294 291 288 283 278 274 271 268 266 263 261 259 257 255 252 249 245 242 239 234 229 227 226 226 226 226 227 228 228 228 228 229 230 231 232 232 233 233 234 234 235 236 236 237 238 238 239 239 240 241 242 242 243 243 244 244 245 246 247 248 248 249 250 251
307 309 311 313 313 311 307 305 305 305 306 307 308 308 307 306 306 305 303 300 299 297 295 291 287 282 276 272 270 267 265 262 259 257 255 251 247 243 240 237 233 228 225 224 224 224 224 224 225 227 227 227 227 228 229 230 230 231 232 232 233 233 234 235 236 237 238 239 240 241 241 242 243 243 244 245 246 247 247 248 249 250 251 252 253
309 310 311 314 316 315 311 308 307 307 308 308 309 309 308 309 309 308 306 304 302 301 299 296 292 286 279 274 272 269 267 263 259 256 253 250 246 241 238 235 231 226 224 223 222 222 222 222 223 225 226 226 226 226 227 228 229 230 231 231 232 233 233 234 235 236 238 239 240 240 241 242 243 244 245 246 247 248 249 249 250 251 252 253 254
311 312 313 314 317 318 315 311 309 309 309 310 310 310 310 311 311 310 308 307 306 304 302 299 295 289 282 278 275 272 268 264 259 254 250 247 243 239 236 233 229 225 223 222 221 220 220 220 220 222 224 225 226 226 225 226 227 229 230 231 232 233 233 234 235 235 236 237 238 239 240 241 242 243 244 245 246 247 248 249 250 250 251 252 253
312 313 314 314 315 317 317 314 310 309 310 311 312 312 312 312 312 312 311 310 309 307 305 301 297 293 287 282 278 274 269 264 258 252 247 242 239 236 234 232 229 226 224 222 220 219 219 218 219 220 222 224 225 225 225 226 227 228 229 230 231 231 233 234 235 236 237 238 239 240 241 242 242 243 244 245 246 247 248 249 250 250 251 252 253
310 311 312 313 313 315 317 316 312 310 310 312 312 313 313 313 313 313 313 313 311 309 306 303 300 297 292 287 281 277 270 263 256 249 243 239 235 234 233 233 231 228 225 223 220 219 218 218 218 219 220 222 224 224 225 225 226 227 229 230 230 231 233 234 235 236 238 239 240 241 242 243 244 244 245 246 247 248 249 250 251 252 253 253 254
309 310 311 312 312 313 315 316 314 311 311 312 313 313 313 313 312 312 313 313 311 309 307 304 302 299 295 289 283 277 269 260 253 247 241 236 234 232 231 230 228 225 224 222 220 218 218 218 218 218 219 221 222 223 224 225 226 228 229 231 231 232 233 235 236 237 238 239 240 241 242 243 244 245 246 247 248 249 250 250 251 252 253 254 255
307 308 309 310 312 312 312 314 315 312 310 311 312 312 313 313 311 311 312 312 309 307 305 304 302 298 294 287 281 273 265 257 249 244 238 234 231 228 226 223 221 219 220 220 219 218 218 219 219 218 218 219 221 222 223 224 226 227 230 232 233 233 234 236 237 238 239 240 242 242 243 245 246 247 248 249 250 250 251 252 253 254 254 255 256
304 305 307 309 310 311 310 311 313 312 310 310 312 312 312 312 310 309 311 310 307 305 304 302 299 295 289 283 276 267 260 253 246 240 234 230 227 224 221 218 216 214 215 216 216 216 217 218 219 219 219 219 221 222 223 224 225 227 229 231 233 234 235 236 238 239 240 242 243 244 245 246 248 249 250 251 252 253 253 254 255 256 256 257 257
304 304 305 307 308 309 309 309 311 312 310 309 310 311 310 311 310 309 309 309 305 303 302 300 296 292 286 278 270 262 256 251 244 236 231 227 225 222 219 216 212 211 211 212 213 214 215 217 218 219 220 220 221 223 224 225 225 227 228 230 232 234 235 236 238 239 241 242 244 245 246 247 248 249 250 251 252 253 254 255 256 257 257 258 258
305 305 306 306 307 308 308 308 309 311 310 308 308 310 309 309 309 307 307 308 306 302 300 298 293 288 282 275 267 260 254 249 242 234 228 225 223 220 217 215 212 209 208 208 209 211 213 215 217 218 219 220 222 223 224 225 226 227 228 230 232 233 235 237 238 239 240 242 243 244 246 247 248 249 250 251 251 252 253 254 255 256 257 258 259
307 306 306 307 306 307 307 307 307 308 309 307 306 307 308 307 307 306 305 305 305 303 299 296 290 284 280 273 265 257 251 245 239 231 225 222 220 218 216 214 211 209 207 206 206 208 210 212 214 216 217 219 220 222 224 225 226 228 229 230 231 233 234 236 237 238 239 240 242 243 244 246 247 248 249 250 251 252 253 254 255 256 257 257 258
308 308 307 307 307 306 306 306 305 305 307 306 304 304 305 305 305 305 303 302 303 302 298 293 289 284 279 272 261 252 246 240 234 227 221 219 218 216 214 213 211 210 208 206 205 205 207 209 211 213 214 216 218 220 222 224 226 227 228 229 231 232 233 235 236 237 238 239 240 242 243 244 245 246 248 249 251 252 253 254 255 256 257 258 259
309 309 309 308 307 306 305 305 304 304 304 304 303 301 301 302 302 303 302 300 299 298 295 290 286 283 276 267 256 247 241 236 232 225 218 216 216 214 212 211 210 209 208 206 205 205 206 208 209 211 213 214 216 218 220 222 224 225 227 229 230 231 233 234 236 237 238 239 240 241 242 243 245 246 247 249 250 251 252 253 254 256 257 258 259
310 310 310 309 307 305 304 303 303 302 302 302 301 299 297 298 298 299 299 298 295 293 291 287 283 278 272 263 253 245 238 233 229 222 217 215 213 211 210 209 207 207 206 206 206 206 206 207 209 210 211 213 215 217 219 221 223 224 226 228 230 232 234 235 237 238 239 240 241 242 243 245 246 248 249 250 251 252 253 254 255 256 257 258 259
309 309 309 308 307 305 304 302 302 302 300 299 299 297 295 294 294 294 294 294 291 288 285 282 278 273 268 259 250 242 237 231 225 220 217 215 211 208 207 207 205 205 205 205 205 205 206 207 208 210 211 212 214 216 219 221 223 225 227 229 231 233 235 236 238 239 241 242 243 244 246 247 248 250 251 252 253 254 254 255 256 257 257 258 259
307 307 307 306 305 304 303 301 301 301 299 297 295 294 292 290 290 289 289 288 286 282 279 276 273 269 263 256 247 240 235 229 223 219 218 216 211 207 206 205 204 203 204 205 205 206 206 207 209 210 212 213 215 217 220 222 224 227 229 231 233 234 236 238 239 240 242 243 244 245 247 248 249 250 252 253 253 254 255 256 257 257 258 259 260
305 304 303 302 302 301 301 300 299 299 299 296 293 291 290 287 285 284 284 283 281 277 273 269 266 263 258 252 245 238 233 228 223 220 219 217 212 209 207 206 205 205 205 205 206 208 208 209 210 212 213 215 217 219 221 224 226 228 230 231 233 234 236 237 239 240 241 243 244 245 247 248 249 250 252 253 254 255 256 257 258 259 260 260 261
301 301 300 300 299 298 298 298 297 297 298 296 292 288 286 284 281 279 278 277 276 272 267 263 260 258 254 249 244 238 233 228 224 222 221 218 214 212 211 209 208 207 207 207 208 209 210 211 212 214 215 217 218 220 221 223 225 227 228 230 231 233 234 236 237 239 241 243 245 246 248 250 251 252 254 255 256 258 259 260 261 262 262 262 263
297 297 298 298 297 295 294 294 294 294 295 294 292 288 284 281 278 276 273 272 271 268 263 259 255 252 250 246 242 237 233 230 226 224 221 218 217 216 214 212 211 210 209 209 210 211 212 212 213 214 216 217 218 220 221 223 224 225 227 228 229 230 232 234 236 239 241 244 247 249 251 253 255 256 257 259 260 261 262 262 263 264 264 264 265
292 293 294 295 295 294 292 291 291 290 290 291 290 287 283 279 276 272 269 267 266 264 260 256 252 248 245 243 239 235 232 230 227 225 222 219 218 218 216 215 213 212 211 211 211 212 212 213 214 215 216 217 219 220 221 222 224 225 226 227 228 230 232 235 238 241 244 247 250 252 255 256 258 259 260 261 262 263 264 264 264 265 265 265 266
291 289 289 291 292 292 291 290 288 287 286 287 287 285 282 278 274 270 267 264 262 260 257 254 249 245 242 240 238 235 231 228 226 225 224 221 219 219 218 217 216 214 213 213 212 212 213 214 214 215 217 218 219 220 222 223 224 226 227 229 231 233 236 239 242 245 248 251 254 256 258 260 261 262 262 263 264 265 265 266 266 266 266 266 266
296 291 288 288 290 291 290 289 287 285 284 283 283 282 281 278 274 270 265 261 259 257 255 252 249 244 241 238 236 234 232 228 225 224 223 222 220 219 219 219 219 218 216 215 214 214 215 216 216 217 219 220 221 222 224 225 226 228 230 232 235 238 242 245 249 251 254 256 258 260 262 263 264 264 264 265 265 266 266 266 266 266 266 266 266
307 299 293 290 290 291 290 289 287 285 283 282 281 280 279 276 274 270 265 261 257 254 252 251 248 244 241 238 236 234 233 231 229 226 224 223 221 220 220 220 221 221 221 220 219 218 219 220 221 223 224 225 226 227 228 229 230 232 235 238 241 245 248 251 254 257 258 260 262 263 265 265 266 266 266 266 266 266 266 266 265 265 265 265 265
320 311 303 297 295 293 292 290 288 286 284 281 280 279 278 276 273 270 266 262 258 253 251 249 247 244 241 239 237 235 233 232 231 230 228 226 225 224 223 223 223 224 224 225 225 224 224 225 226 227 228 230 231 231 232 233 235 237 239 242 246 249 252 255 258 260 261 263 265 266 267 267 267 267 267 266 267 267 266 266 265 265 265 265 265
332 324 315 308 302 299 296 293 291 288 285 283 280 278 277 275 273 269 266 263 259 255 251 248 246 245 242 240 238 237 235 234 233 232 231 230 229 228 228 227 227 227 227 228 229 229 230 230 230 230 231 232 233 234 235 237 239 241 244 247 251 254 256 259 261 263 265 266 267 268 268 268 268 268 268 268 267 267 266 266 265 264 264 265 265
338 335 329 322 316 310 305 300 296 291 288 284 281 278 276 275 273 270 266 263 260 257 253 248 245 244 243 241 240 238 236 235 235 234 233 232 231 231 231 231 231 230 231 231 232 233 233 234 235 235 236 236 238 239 241 243 245 248 251 253 256 258 260 262 264 266 267 268 268 269 269 269 269 268 268 268 267 266 265 264 264 263 263 264 264
334 334 333 331 328 324 319 314 309 303 296 290 284 280 276 274 272 270 267 263 259 257 254 251 247 244 242 241 240 239 238 236 236 236 236 235 234 234 234 234 234 235 235 235 236 236 237 238 239 240 241 243 244 246 247 249 251 253 255 257 259 261 263 264 266 267 268 269 269 270 270 270 269 268 267 266 264 263 262 261 261 261 261 262 262
325 325 325 325 325 324 323 321 319 315 310 304 296 289 282 277 272 269 266 263 260 257 254 252 249 246 243 241 240 240 239 238 236 236 237 237 237 236 236 237 237 237 238 238 239 240 241 242 243 244 245 247 248 250 252 254 255 257 259 261 262 264 265 267 268 269 270 270 270 270 269 268 267 266 265 263 261 259 257 256 256 257 258 258 258
318 318 317 317 316 316 315 315 314 313 312 310 306 301 294 287 279 273 268 264 260 257 254 251 249 247 244 242 240 239 239 238 237 237 237 237 237 237 237 238 238 239 239 240 241 242 243 244 246 247 248 250 251 253 254 256 258 260 262 263 265 267 269 270 271 272 271 270 269 268 267 265 264 263 262 260 257 254 253 252 253 253 254 254 253
314 313 312 311 310 309 308 307 306 305 305 304 302 300 297 293 288 282 275 268 263 258 254 251 249 247 246 244 241 240 238 238 237 237 237 237 237 237 237 238 239 239 240 241 242 243 245 246 247 249 251 252 254 255 257 259 261 263 264 266 269 270 271 271 271 270 270 269 268 267 265 263 262 261 258 255 252 250 249 249 249 249 248 248 248
312 311 309 308 306 305 303 302 301 299 298 296 295 293 292 290 287 285 281 275 269 262 256 252 249 247 245 244 243 241 240 238 237 237 237 237 237 238 238 238 239 240 240 240 241 243 245 247 248 250 252 253 255 258 260 261 263 265 267 269 270 270 269 269 269 269 270 270 269 266 263 261 258 256 253 250 248 246 245 244 243 242 242 244 247
Height
5396 5394 5393 5393 5393 5393 5393 5393 5393 5394 5394 5395 5395 5395 5395 5394 5394 5394 5397 5399 5401 5403 5404 5406 5408 5410 5413 5416 5419 5421 5424 5426 5427 5430 5433 5437 5440 5443 5446 5447 5449 5453 5457 5460 5463 5466 5469 5473 5477 5482 5485 5487 5490 5495 5498 5500 5503 5505 5508 5510 5512 5517 5520 5521 5527 5535 5536 5537 5539 5540 5540 5541 5542 5545 5547 5548 5550 5551 5553 5556 5557 5559 5561 5564 5565
5383 5381 5380 5378 5378 5377 5377 5376 5377 5377 5377 5377 5378 5379 5379 5380 5380 5380 5380 5381 5383 5386 5388 5390 5392 5395 5397 5399 5402 5405 5408 5411 5413 5415 5418 5422 5425 5428 5432 5434 5436 5440 5444 5447 5451 5454 5456 5460 5465 5470 5473 5474 5478 5483 5487 5490 5492 5494 5497 5500 5503 5507 5509 5510 5515 5522 5525 5527 5530 5530 5531 5533 5535 5536 5537 5539 5540 5541 5544 5547 5548 5549 5552 5554 5556
5373 5370 5368 5366 5365 5363 5362 5362 5361 5361 5361 5361 5361 5361 5361 5363 5364 5365 5366 5365 5366 5368 5370 5373 5376 5378 5381 5383 5385 5388 5391 5395 5398 5401 5403 5407 5410 5414 5417 5420 5423 5427 5430 5434 5438 5441 5443 5447 5452 5458 5460 5462 5466 5471 5475 5478 5480 5483 5486 5490 5493 5497 5499 5500 5503 5509 5513 5516 5518 5520 5522 5524 5527 5528 5528 5529 5529 5531 5535 5538 5539 5540 5542 5544 5546
5363 5360 5358 5355 5353 5351 5349 5348 5347 5346 5346 5346 5346 5345 5345 5345 5345 5347 5348 5350 5350 5351 5352 5355 5358 5361 5364 5367 5369 5371 5374 5378 5381 5385 5388 5391 5395 5399 5402 5405 5409 5413 5417 5421 5425 5427 5430 5434 5440 5445 5448 5449 5454 5459 5463 5466 5468 5472 5476 5479 5481 5486 5489 5490 5492 5497 5500 5503 5506 5510 5513 5514 5517 5519 5519 5520 5520 5522 5526 5529 5531 5532 5534 5535 5537
5354 5352 5349 5345 5342 5340 5337 5336 5334 5334 5333 5333 5333 5332 5331 5330 5329 5329 5330 5331 5334 5335 5335 5337 5339 5342 5346 5349 5352 5355 5358 5361 5364 5368 5372 5375 5379 5383 5387 5391 5394 5398 5402 5407 5411 5414 5417 5421 5427 5432 5434 5436 5441 5447 5451 5454 5457 5460 5464 5467 5471 5475 5477 5479 5482 5485 5488 5491 5495 5498 5501 5503 5506 5509 5511 5511 5512 5514 5516 5519 5522 5523 5524 5526 5528
5346 5343 5340 5337 5334 5330 5327 5325 5324 5323 5322 5322 5321 5320 5318 5316 5315 5314 5313 5314 5316 5317 5318 5319 5321 5323 5327 5330 5334 5338 5341 5344 5348 5351 5355 5358 5362 5367 5371 5376 5380 5383 5388 5392 5396 5400 5404 5409 5415 5419 5421 5424 5430 5436 5439 5443 5446 5448 5452 5456 5460 5463 5464 5467 5471 5474 5476 5480 5484 5486 5489 5492 5495 5498 5500 5502 5503 5505 5507 5510 5513 5514 5515 5517 5518
5337 5334 5331 5328 5325 5321 5318 5316 5315 5314 5313 5312 5311 5309 5306 5304 5301 5299 5298 5297 5298 5299 5300 5302 5303 5305 5308 5311 5315 5319 5324 5328 5331 5334 5338 5342 5346 5351 5355 5359 5364 5368 5373 5378 5383 5386 5390 5396 5401 5405 5408 5412 5418 5423 5427 5431 5434 5436 5440 5445 5448 5450 5452 5455 5459 5462 5465 5469 5472 5475 5479 5481 5483 5486 5489 5490 5491 5495 5498 5501 5504 5506 5506 5507 5507
5327 5325 5322 5318 5315 5312 5309 5307 5306 5305 5304 5303 5301 5298 5295 5292 5289 5286 5284 5282 5281 5281 5282 5284 5286 5288 5290 5293 5296 5300 5305 5310 5314 5317 5321 5325 5329 5334 5338 5342 5347 5353 5360 5365 5369 5373 5378 5382 5387 5392 5395 5400 5405 5410 5414 5418 5421 5425 5429 5433 5435 5437 5440 5444 5447 5450 5454 5458 5461 5464 5468 5469 5472 5475 5478 5478 5480 5486 5490 5493 5495 5497 5497 5496 5497
5317 5315 5312 5309 5306 5302 5300 5298 5296 5295 5294 5293 5291 5288 5285 5281 5278 5275 5272 5269 5267 5266 5266 5266 5268 5271 5273 5275 5278 5282 5286 5291 5296 5299 5303 5308 5312 5317 5322 5326 5332 5338 5345 5351 5355 5360 5364 5369 5374 5379 5383 5387 5392 5397 5401 5405 5408 5412 5417 5421 5423 5426 5429 5432 5435 5438 5442 5446 5450 5453 5456 5458 5461 5465 5467 5469 5472 5476 5478 5479 5482 5486 5487 5486 5487
5308 5305 5302 5299 5296 5292 5290 5288 5287 5286 5284 5282 5280 5277 5274 5270 5267 5264 5261 5258 5255 5253 5252 5251 5252 5253 5256 5258 5261 5264 5268 5273 5277 5281 5286 5290 5295 5300 5305 5310 5316 5323 5329 5336 5341 5346 5351 5356 5361 5365 5370 5374 5379 5384 5388 5392 5396 5400 5405 5408 5411 5414 5417 5420 5423 5427 5431 5434 5439 5442 5445 5448 5452 5455 5458 5461 5463 5464 5465 5466 5469 5473 5475 5475 5477
5299 5296 5293 5290 5286 5283 5280 5278 5277 5276 5274 5271 5268 5265 5263 5260 5257 5253 5250 5247 5244 5241 5240 5239 5237 5237 5238 5241 5243 5247 5251 5255 5258 5263 5269 5273 5277 5282 5288 5292 5299 5307 5315 5321 5327 5332 5337 5342 5348 5352 5357 5361 5366 5371 5375 5379 5383 5388 5392 5396 5399 5403 5406 5409 5413 5416 5419 5423 5427 5431 5434 5438 5442 5445 5447 5450 5451 5452 5454 5455 5457 5461 5463 5465 5467
5291 5288 5285 5281 5277 5274 5271 5269 5267 5266 5263 5261 5257 5254 5251 5248 5246 5242 5239 5236 5233 5231 5229 5227 5225 5224 5224 5225 5227 5230 5234 5238 5240 5245 5251 5256 5260 5265 5270 5275 5282 5291 5300 5306 5312 5319 5323 5328 5334 5339 5344 5349 5353 5358 5362 5366 5371 5375 5379 5384 5388 5391 5394 5398 5401 5405 5408 5412 5416 5419 5423 5427 5431 5433 5436 5438 5440 5441 5443 5444 5446 5450 5453 5454 5456
5284 5280 5277 5273 5269 5265 5262 5260 5258 5256 5253 5250 5247 5244 5240 5237 5234 5231 5228 5225 5222 5220 5218 5216 5214 5212 5211 5211 5212 5214 5218 5221 5223 5228 5234 5239 5243 5247 5253 5258 5264 5274 5284 5292 5298 5305 5310 5315 5320 5326 5331 5336 5340 5345 5350 5354 5359 5363 5367 5371 5375 5379 5383 5387 5390 5393 5397 5400 5404 5409 5413 5415 5418 5422 5424 5426 5427 5429 5431 5434 5437 5439 5442 5444 5446
5275 5272 5269 5265 5261 5257 5254 5251 5249 5246 5244 5240 5237 5234 5230 5227 5223 5220 5217 5214 5211 5209 5207 5205 5203 5202 5200 5199 5199 5201 5203 5205 5207 5211 5216 5222 5226 5230 5235 5240 5248 5258 5269 5277 5284 5291 5297 5301 5306 5312 5317 5323 5328 5333 5338 5342 5347 5351 5355 5359 5364 5368 5372 5376 5379 5383 5386 5390 5394 5399 5402 5404 5407 5410 5411 5413 5415 5418 5421 5423 5426 5428 5430 5432 5434
5266 5263 5260 5256 5252 5249 5245 5243 5241 5238 5235 5232 5228 5225 5221 5217 5213 5209 5205 5203 5201 5198 5196 5194 5192 5191 5189 5187 5187 5189 5191 5191 5192 5195 5200 5205 5209 5213 5217 5223 5232 5244 5255 5261 5268 5276 5283 5288 5293 5298 5304 5310 5315 5321 5326 5330 5335 5339 5343 5348 5353 5357 5361 5364 5368 5372 5376 5380 5383 5387 5390 5393 5396 5398 5399 5401 5404 5407 5410 5412 5414 5415 5417 5420 5422
5258 5255 5251 5248 5244 5240 5237 5234 5232 5229 5226 5223 5220 5216 5212 5207 5203 5198 5195 5192 5190 5187 5185 5182 5181 5179 5178 5176 5175 5176 5178 5178 5178 5181 5184 5188 5193 5196 5201 5207 5217 5230 5241 5246 5252 5261 5268 5275 5281 5286 5291 5297 5303 5308 5314 5318 5323 5327 5332 5337 5341 5345 5349 5353 5357 5360 5364 5368 5371 5374 5378 5381 5383 5386 5388 5390 5393 5396 5398 5400 5402 5404 5406 5409 5412
5251 5247 5244 5240 5236 5232 5228 5226 5223 5221 5217 5214 5211 5207 5203 5198 5194 5189 5185 5182 5179 5177 5174 5171 5169 5167 5166 5165 5163 5164 5166 5166 5166 5168 5171 5174 5178 5181 5186 5193 5204 5216 5227 5232 5237 5245 5253 5260 5267 5273 5279 5284 5290 5296 5301 5306 5311 5316 5321 5325 5330 5334 5338 5342 5345 5349 5353 5356 5359 5362 5366 5369 5372 5375 5377 5380 5382 5385 5387 5389 5392 5394 5396 5398 5401
5244 5240 5236 5232 5228 5225 5221 5218 5215 5212 5209 5206 5202 5198 5194 5190 5185 5180 5175 5172 5169 5167 5163 5161 5159 5156 5154 5153 5152 5152 5154 5155 5155 5156 5159 5161 5164 5167 5172 5179 5190 5202 5212 5218 5223 5230 5238 5246 5254 5261 5267 5272 5278 5284 5289 5295 5300 5305 5309 5314 5319 5323 5327 5331 5334 5338 5341 5345 5348 5351 5354 5357 5361 5364 5367 5370 5372 5374 5376 5379 5381 5383 5385 5387 5390
5237 5233 5229 5225 5221 5217 5214 5211 5208 5204 5201 5197 5194 5190 5185 5181 5176 5172 5167 5163 5160 5157 5153 5150 5148 5146 5143 5142 5141 5141 5143 5144 5144 5146 5148 5150 5152 5155 5159 5166 5177 5189 5197 5203 5209 5217 5225 5233 5240 5248 5254 5260 5266 5272 5278 5284 5289 5293 5298 5302 5307 5312 5316 5320 5323 5326 5330 5334 5337 5340 5344 5347 5350 5353 5356 5359 5361 5363 5365 5367 5369 5372 5374 5376 5378
5231 5227 5223 5219 5215 5211 5207 5204 5200 5197 5193 5190 5186 5182 5177 5173 5168 5164 5160 5155 5151 5148 5144 5141 5138 5137 5134 5132 5132 5132 5133 5135 5135 5136 5138 5140 5141 5143 5147 5154 5165 5175 5183 5190 5197 5204 5212 5220 5228 5235 5242 5248 5255 5261 5267 5273 5277 5282 5286 5291 5296 5301 5305 5308 5312 5315 5319 5323 5326 5330 5333 5336 5339 5342 5344 5347 5350 5352 5354 5356 5359 5361 5363 5364 5366
5224 5221 5217 5213 5209 5205 5201 5197 5194 5190 5186 5182 5179 5175 5170 5166 5161 5157 5153 5148 5144 5141 5137 5133 5131 5129 5127 5125 5124 5124 5124 5125 5127 5127 5129 5131 5132 5134 5138 5144 5154 5163 5171 5177 5184 5192 5200 5208 5216 5223 5230 5236 5243 5249 5255 5261 5266 5271 5276 5280 5285 5289 5293 5297 5301 5305 5308 5312 5315 5319 5323 5326 5328 5331 5334 5337 5340 5342 5344 5346 5348 5350 5352 5354 5356
5218 5215 5211 5207 5203 5199 5195 5191 5187 5183 5180 5176 5172 5169 5164 5159 5155 5151 5146 5142 5138 5135 5131 5127 5125 5123 5121 5118 5118 5117 5117 5118 5119 5120 5121 5123 5125 5127 5130 5136 5144 5152 5159 5166 5173 5181 5189 5197 5206 5213 5219 5225 5232 5238 5245 5251 5256 5261 5265 5269 5274 5278 5283 5288 5291 5295 5298 5301 5305 5309 5313 5315 5318 5320 5323 5326 5329 5332 5333 5335 5337 5339 5341 5343 5344
5212 5208 5205 5201 5197 5193 5189 5185 5181 5177 5174 5170 5166 5163 5159 5154 5150 5145 5141 5137 5133 5130 5126 5123 5121 5118 5116 5114 5112 5112 5112 5112 5113 5114 5115 5116 5119 5121 5124 5129 5136 5143 5150 5156 5163 5171 5179 5188 5196 5202 5208 5215 5221 5228 5236 5242 5247 5252 5255 5259 5264 5269 5273 5277 5281 5284 5288 5291 5295 5298 5302 5305 5308 5310 5313 5316 5319 5321 5323 5325 5326 5328 5330 5332 5333
5206 5203 5199 5195 5192 5188 5184 5179 5175 5172 5168 5164 5161 5157 5153 5149 5145 5141 5137 5133 5129 5126 5122 5119 5117 5115 5112 5110 5109 5108 5108 5108 5108 5109 5110 5112 5114 5116 5120 5124 5130 5137 5143 5149 5156 5163 5171 5179 5186 5192 5199 5206 5212 5220 5229 5236 5239 5242 5245 5249 5254 5259 5263 5267 5270 5274 5277 5281 5285 5288 5292 5295 5298 5300 5303 5305 5308 5311 5312 5313 5315 5317 5319 5320 5321
5201 5197 5194 5190 5186 5183 5179 5174 5170 5167 5163 5159 5156 5152 5149 5145 5140 5136 5133 5130 5126 5123 5120 5117 5114 5112 5110 5108 5106 5106 5106 5105 5106 5106 5108 5109 5111 5114 5117 5122 5127 5133 5138 5143 5150 5156 5163 5170 5177 5185 5193 5200 5205 5214 5221 5224 5227 5231 5235 5240 5245 5250 5254 5258 5261 5265 5268 5272 5275 5279 5282 5285 5287 5290 5293 5295 5298 5300 5301 5303 5304 5306 5307 5309 5310
5196 5192 5188 5185 5181 5177 5174 5170 5166 5162 5158 5154 5151 5148 5145 5141 5137 5133 5130 5127 5124 5121 5118 5115 5112 5110 5108 5106 5105 5104 5104 5104 5104 5105 5106 5108 5110 5112 5116 5120 5125 5129 5134 5139 5145 5151 5157 5164 5171 5179 5186 5192 5197 5205 5210 5214 5219 5224 5228 5232 5237 5242 5245 5249 5252 5256 5259 5262 5266 5269 5272 5275 5277 5280 5282 5285 5287 5289 5290 5292 5293 5295 5297 5298 5300
5190 5187 5183 5180 5176 5172 5168 5165 5161 5157 5154 5150 5147 5144 5141 5138 5134 5130 5127 5125 5122 5119 5116 5113 5111 5109 5107 5105 5104 5104 5103 5103 5103 5104 5105 5107 5109 5111 5115 5118 5122 5126 5130 5135 5141 5147 5153 5159 5165 5171 5179 5185 5191 5197 5202 5207 5213 5218 5221 5224 5228 5233 5237 5240 5244 5247 5250 5253 5257 5260 5263 5266 5268 5270 5272 5275 5276 5278 5280 5282 5283 5284 5286 5288 5289
5184 5181 5177 5174 5171 5167 5163 5160 5157 5153 5149 5146 5143 5140 5137 5134 5131 5128 5125 5123 5119 5117 5114 5112 5110 5108 5106 5105 5104 5103 5102 5102 5102 5103 5105 5106 5108 5110 5113 5116 5120 5124 5128 5132 5138 5143 5149 5154 5160 5167 5174 5180 5186 5191 5196 5201 5206 5211 5214 5218 5221 5225 5229 5232 5236 5239 5242 5245 5248 5251 5254 5257 5259 5260 5263 5265 5266 5268 5270 5271 5272 5273 5275 5277 5278
5177 5174 5171 5168 5165 5161 5158 5155 5152 5149 5145 5142 5139 5136 5134 5131 5128 5125 5122 5120 5118 5115 5113 5111 5109 5107 5106 5104 5103 5103 5102 5102 5102 5103 5104 5106 5107 5109 5112 5115 5118 5122 5125 5130 5135 5140 5145 5151 5157 5163 5169 5175 5181 5185 5190 5195 5200 5204 5208 5211 5214 5217 5221 5225 5229 5232 5235 5237 5240 5243 5246 5248 5250 5252 5253 5255 5257 5258 5259 5260 5261 5262 5264 5265 5266
5171 5168 5165 5162 5159 5156 5153 5150 5147 5144 5141 5138 5135 5132 5130 5128 5126 5123 5120 5118 5116 5113 5111 5109 5108 5106 5105 5104 5103 5102 5102 5102 5102 5103 5104 5105 5107 5109 5111 5114 5117 5120 5124 5128 5133 5138 5143 5148 5154 5159 5165 5171 5176 5180 5184 5189 5194 5198 5201 5205 5208 5211 5215 5218 5222 5225 5227 5230 5232 5235 5237 5239 5241 5243 5244 5246 5247 5248 5250 5251 5251 5252 5254 5255 5256
5165 5162 5159 5156 5153 5150 5148 5145 5142 5139 5137 5134 5132 5129 5126 5124 5122 5120 5118 5115 5113 5112 5110 5108 5106 5105 5104 5103 5102 5102 5101 5101 5102 5102 5104 5105 5106 5108 5110 5113 5116 5119 5123 5126 5131 5135 5140 5145 5150 5155 5161 5166 5170 5174 5179 5183 5187 5191 5195 5198 5202 5205 5208 5211 5214 5217 5220 5222 5224 5227 5229 5231 5232 5234 5235 5237 5238 5239 5240 5241 5242 5243 5244 5245 5246
5158 5156 5153 5151 5148 5145 5142 5140 5137 5135 5132 5130 5128 5126 5124 5121 5119 5117 5115 5113 5111 5109 5108 5106 5105 5104 5103 5102 5102 5101 5101 5101 5101 5102 5103 5105 5106 5108 5110 5112 5115 5118 5121 5125 5129 5133 5137 5142 5146 5151 5156 5161 5165 5169 5174 5178 5181 5185 5189 5192 5195 5199 5201 5204 5207 5210 5212 5214 5217 5219 5221 5223 5225 5227 5228 5229 5230 5231 5232 5233 5234 5235 5236 5237 5238
5152 5150 5147 5145 5143 5140 5137 5135 5132 5130 5128 5126 5124 5122 5120 5118 5116 5114 5112 5111 5109 5107 5106 5105 5104 5103 5102 5101 5101 5101 5100 5100 5101 5102 5103 5104 5105 5107 5109 5112 5114 5117 5120 5123 5127 5131 5134 5138 5143 5147 5152 5156 5160 5164 5168 5172 5175 5179 5182 5186 5189 5192 5194 5197 5200 5203 5205 5207 5209 5211 5213 5215 5217 5219 5221 5222 5223 5224 5225 5225 5226 5227 5228 5229 5229
5146 5143 5141 5139 5137 5134 5132 5130 5128 5125 5123 5122 5120 5118 5116 5115 5113 5111 5109 5108 5107 5105 5104 5103 5102 5101 5101 5100 5100 5100 5100 5100 5101 5102 5103 5104 5105 5107 5109 5111 5113 5116 5119 5122 5125 5128 5132 5136 5140 5144 5148 5152 5156 5159 5163 5166 5170 5173 5176 5180 5182 5185 5188 5191 5193 5195 5198 5200 5202 5204 5206 5208 5210 5211 5213 5214 5215 5216 5217 5217 5218 5219 5220 5221 5221
5140 5138 5136 5133 5131 5129 5127 5124 5123 5121 5119 5117 5115 5114 5112 5111 5110 5108 5107 5105 5104 5103 5102 5101 5101 5100 5100 5099 5099 5099 5099 5100 5100 5101 5102 5103 5104 5106 5108 5110 5112 5115 5118 5120 5123 5126 5130 5133 5137 5141 5144 5148 5152 5155 5158 5161 5165 5168 5171 5174 5176 5179 5181 5184 5186 5188 5191 5193 5195 5197 5198 5200 5202 5203 5205 5206 5207 5207 5208 5209 5210 5211 5212 5212 5213
5135 5132 5130 5128 5126 5124 5121 5119 5117 5116 5114 5113 5111 5109 5108 5107 5106 5105 5104 5103 5102 5101 5100 5099 5099 5098 5098 5098 5098 5098 5098 5099 5100 5100 5101 5102 5104 5105 5107 5109 5111 5114 5116 5119 5122 5125 5128 5131 5134 5137 5141 5144 5148 5151 5154 5156 5159 5162 5165 5168 5170 5173 5175 5177 5180 5182 5184 5186 5188 5189 5191 5193 5194 5196 5197 5198 5199 5200 5200 5201 5202 5203 5204 5205 5205
5129 5126 5124 5122 5120 5118 5116 5114 5112 5110 5109 5108 5106 5105 5104 5103 5102 5101 5101 5100 5099 5098 5098 5097 5097 5097 5097 5097 5097 5097 5097 5098 5099 5099 5100 5101 5103 5105 5106 5108 5110 5112 5115 5117 5120 5123 5125 5128 5131 5134 5138 5141 5144 5146 5149 5152 5155 5157 5160 5162 5165 5167 5169 5171 5173 5175 5177 5179 5181 5183 5184 5186 5187 5189 5190 5191 5192 5192 5193 5194 5194 5195 5196 5197 5197
5122 5120 5118 5116 5115 5113 5111 5109 5107 5105 5104 5103 5102 5101 5100 5099 5098 5097 5097 5096 5096 5096 5095 5095 5095 5095 5095 5095 5095 5096 5096 5096 5097 5098 5099 5100 5102 5103 5105 5107 5109 5111 5113 5116 5118 5120 5123 5126 5129 5131 5134 5137 5140 5142 5145 5147 5150 5152 5155 5157 5159 5162 5164 5166 5168 5170 5172 5173 5175 5176 5178 5179 5181 5182 5183 5183 5184 5185 5185 5186 5187 5187 5188 5188 5188
5114 5112 5111 5109 5108 5106 5105 5103 5101 5100 5099 5097 5096 5096 5095 5094 5094 5093 5093 5093 5092 5092 5092 5092 5092 5092 5092 5093 5093 5094 5094 5095 5096 5096 5098 5099 5100 5102 5103 5105 5107 5109 5111 5114 5116 5118 5120 5123 5126 5128 5131 5133 5136 5138 5141 5143 5145 5148 5150 5152 5155 5157 5159 5161 5163 5164 5166 5168 5169 5170 5172 5173 5174 5175 5175 5176 5177 5177 5178 5179 5179 5179 5179 5179 5180
5106 5105 5103 5102 5101 5100 5098 5097 5096 5094 5093 5092 5091 5090 5090 5090 5089 5089 5089 5089 5089 5089 5089 5089 5089 5090 5090 5090 5091 5092 5092 5093 5094 5095 5096 5097 5098 5100 5101 5103 5105 5107 5109 5111 5113 5116 5118 5120 5122 5125 5127 5130 5132 5134 5137 5139 5141 5144 5146 5148 5150 5152 5154 5156 5158 5160 5161 5162 5163 5165 5166 5166 5167 5168 5168 5169 5170 5170 5171 5171 5171 5171 5171 5171 5171
5098 5097 5096 5095 5094 5093 5092 5091 5090 5089 5088 5087 5086 5086 5085 5085 5085 5084 5084 5084 5085 5085 5085 5085 5086 5087 5087 5088 5088 5089 5090 5091 5092 5093 5094 5095 5097 5098 5099 5101 5103 5105 5107 5109 5111 5113 5115 5117 5119 5121 5124 5126 5128 5131 5133 5135 5137 5139 5141 5144 5146 5147 5149 5151 5153 5154 5156 5157 5158 5159 5159 5160 5161 5161 5161 5162 5162 5163 5163 5163 5163 5164 5164 5163 5163
5090 5089 5089 5088 5087 5087 5086 5085 5084 5083 5082 5081 5081 5080 5080 5080 5079 5080 5080 5080 5080 5080 5081 5081 5082 5083 5084 5085 5085 5086 5087 5088 5089 5090 5091 5093 5094 5096 5097 5099 5100 5102 5104 5106 5108 5110 5112 5114 5116 5118 5120 5123 5125 5127 5129 5131 5133 5135 5137 5139 5141 5143 5144 5146 5147 5148 5149 5150 5151 5152 5152 5153 5154 5154 5155 5155 5155 5155 5156 5156 5156 5156 5156 5156 5156
5083 5082 5082 5082 5081 5081 5080 5079 5078 5077 5077 5076 5075 5075 5075 5075 5074 5074 5075 5075 5075 5076 5076 5077 5078 5079 5080 5081 5082 5083 5084 5085 5086 5087 5089 5090 5092 5093 5095 5096 5098 5099 5101 5103 5105 5107 5109 5111 5113 5115 5117 5119 5121 5124 5126 5128 5130 5131 5133 5135 5136 5138 5139 5140 5141 5142 5143 5144 5145 5145 5146 5146 5147 5147 5148 5148 5148 5148 5149 5149 5149 5149 5149 5149 5149
5079 5078 5077 5077 5076 5075 5075 5074 5073 5072 5071 5070 5070 5069 5069 5069 5069 5069 5069 5070 5070 5071 5071 5072 5073 5074 5075 5076 5078 5079 5080 5082 5083 5084 5086 5087 5089 5090 5092 5093 5095 5097 5098 5100 5102 5104 5106 5108 5110 5112 5114 5116 5118 5120 5122 5124 5125 5127 5129 5130 5132 5133 5134 5135 5135 5136 5137 5137 5138 5138 5139 5139 5139 5140 5140 5140 5141 5141 5141 5141 5142 5142 5142 5142 5142
5077 5075 5074 5072 5071 5070 5069 5069 5068 5067 5066 5065 5064 5064 5063 5064 5064 5064 5064 5064 5065 5065 5066 5067 5068 5069 5071 5072 5073 5074 5076 5077 5079 5080 5082 5084 5085 5087 5089 5090 5092 5094 5095 5097 5099 5101 5102 5104 5106 5108 5110 5112 5114 5116 5118 5119 5121 5122 5124 5125 5127 5127 5128 5129 5129 5129 5130 5130 5131 5131 5131 5131 5132 5132 5132 5133 5133 5133 5133 5134 5134 5135 5135 5135 5136
5076 5073 5071 5069 5067 5066 5064 5063 5062 5061 5060 5060 5059 5058 5058 5058 5058 5058 5059 5059 5059 5060 5061 5062 5063 5064 5065 5067 5068 5069 5071 5073 5074 5076 5077 5079 5081 5083 5085 5086 5088 5090 5092 5093 5095 5097 5099 5100 5102 5104 5106 5108 5110 5111 5113 5114 5116 5117 5119 5120 5121 5121 5122 5122 5122 5123 5123 5123 5123 5123 5123 5124 5124 5124 5124 5125 5125 5125 5126 5126 5127 5128 5128 5129 5129
5074 5071 5069 5067 5065 5062 5061 5059 5057 5056 5055 5054 5053 5052 5052 5051 5052 5052 5052 5053 5053 5054 5055 5056 5057 5058 5059 5061 5062 5064 5066 5068 5069 5071 5073 5074 5076 5078 5080 5082 5084 5085 5087 5089 5091 5093 5094 5096 5098 5100 5101 5103 5105 5106 5107 5109 5110 5111 5112 5113 5114 5115 5115 5115 5116 5116 5116 5116 5116 5116 5116 5116 5116 5116 5116 5116 5117 5117 5118 5119 5120 5121 5122 5122 5123
5071 5069 5066 5064 5062 5059 5057 5055 5054 5052 5050 5049 5048 5047 5046 5045 5045 5045 5046 5046 5047 5048 5048 5049 5051 5052 5053 5055 5056 5058 5060 5062 5064 5066 5067 5069 5071 5073 5075 5077 5079 5081 5083 5084 5086 5088 5090 5091 5093 5095 5096 5098 5099 5101 5102 5103 5104 5105 5106 5107 5108 5108 5108 5108 5109 5109 5109 5108 5108 5108 5108 5108 5108 5108 5108 5108 5109 5110 5111 5112 5114 5115 5115 5116 5116
5067 5065 5062 5060 5058 5056 5054 5052 5050 5048 5046 5045 5043 5042 5041 5040 5039 5039 5039 5040 5040 5041 5042 5043 5044 5045 5047 5048 5050 5052 5054 5056 5058 5060 5062 5064 5066 5068 5070 5072 5074 5075 5078 5080 5081 5083 5085 5086 5088 5089 5091 5092 5094 5095 5096 5097 5098 5099 5100 5100 5101 5101 5101 5101 5101 5101 5101 5100 5100 5100 5100 5100 5100 5101 5101 5102 5102 5104 5105 5106 5108 5109 5110 5110 5111
5062 5060 5058 5055 5053 5051 5049 5047 5046 5044 5042 5041 5039 5038 5037 5035 5034 5034 5033 5033 5033 5034 5035 5036 5037 5038 5040 5041 5043 5045 5047 5049 5051 5054 5056 5058 5060 5062 5064 5066 5068 5070 5072 5074 5076 5077 5079 5081 5083 5084 5086 5087 5088 5089 5090 5091 5092 5093 5093 5094 5094 5094 5094 5094 5093 5093 5093 5093 5093 5093 5093 5093 5094 5094 5095 5096 5097 5098 5100 5101 5102 5103 5104 5105 5106
5057 5054 5052 5050 5047 5045 5043 5042 5040 5038 5037 5035 5034 5033 5031 5030 5029 5029 5028 5027 5027 5027 5028 5029 5030 5031 5033 5034 5036 5038 5040 5042 5044 5047 5049 5051 5054 5056 5058 5060 5062 5064 5066 5069 5070 5072 5074 5075 5077 5079 5080 5081 5082 5084 5084 5085 5086 5087 5087 5088 5087 5087 5087 5087 5087 5087 5087 5086 5086 5086 5087 5087 5088 5088 5089 5091 5092 5093 5095 5096 5097 5098 5099 5100 5102